Weather History for Praha / Ruzyne, Czech Republic

Change the Weather History Date:

Friday, September 20, 2013

  Actual Average Record
Temperature  
Mean Temperature 52 °F -  
Max Temperature 58 °F 59 °F - ()
Min Temperature 46 °F 42 °F - ()
Degree Days  
Heating Degree Days 13    
Growing Degree Days 2 (Base 50)    
Moisture  
Dew Point 47 °F    
Average Humidity 87    
Maximum Humidity 94    
Minimum Humidity 77    
Precipitation  
Precipitation 0.08 in 0.04 in - ()
Sea Level Pressure  
Sea Level Pressure 29.96 in    
Wind  
Wind Speed 10 mph ()    
Max Wind Speed 17 mph    
Max Gust Speed -    
Visibility 6.6 miles    
Events Rain    
T = Trace of Precipitation, MM = Missing Value Source: Averaged Metar Reports

Daily Weather History Graph

Daily Weather History Graph

Search for Another Location

Airport:

Trip Planner

Search our weather history database for the weather conditions in past years. The results will help you decide how hot, cold, wet, or windy it might be!

Date:

Astronomy

Sep. 20, 2013 Rise Set
Actual Time 6:46 AM CEST 7:05 PM CEST
Civil Twilight 6:13 AM CEST 7:37 PM CEST
Nautical Twilight 5:35 AM CEST 8:16 PM CEST
Astronomical Twilight 4:55 AM CEST 8:55 PM CEST
Moon 7:16 PM CEST (9/20) 7:52 AM CEST (9/20)
Length of Visible Light 13h 23m
Length of Day
12h 19m
Full, 99% of the Moon is Illuminated
Sep 20
Full
Sep 27
Last Quarter
Oct 5
New
Oct 12
First Quarter
Oct 19
Full

Hourly Weather History & Observations

Time (CEST) Temp. Windchill Dew Point Humidity Pressure Visibility Wind Dir Wind Speed Gust Speed Precip Events Conditions
12:00 AM 46.4 °F 41.9 °F 42.8 °F 87% 29.95 in - SW 9.2 mph - N/A   Clear
12:30 AM 46.4 °F 41.5 °F 42.8 °F 87% 29.95 in - SW 10.4 mph - N/A   Clear
1:00 AM 46.4 °F 41.5 °F 42.8 °F 87% 29.95 in - SW 10.4 mph - N/A   Clear
1:30 AM 46.4 °F 41.5 °F 44.6 °F 93% 29.95 in - SW 10.4 mph - N/A   Clear
2:00 AM 48 °F - 44 °F 83% 29.96 in 25 mi SW 11.2 mph - -   Mostly Cloudy
2:00 AM 48.2 °F - 44.6 °F 87% 29.95 in - SSW 8.1 mph - N/A   Clear
2:30 AM 48.2 °F - 44.6 °F 87% 29.92 in - SW 10.4 mph - N/A   Clear
3:00 AM 48.2 °F - 44.6 °F 87% 29.92 in - SW 8.1 mph - N/A   Clear
3:30 AM 48.2 °F - 44.6 °F 87% 29.92 in - SW 12.7 mph - N/A   Clear
4:00 AM 48.2 °F - 44.6 °F 87% 29.92 in - SW 11.5 mph - N/A   Clear
4:30 AM 48.2 °F - 44.6 °F 87% 29.92 in - SW 10.4 mph - N/A   Clear
5:00 AM 48.2 °F - 44.6 °F 87% 29.92 in - SW 10.4 mph - N/A   Clear
5:30 AM 48.2 °F - 44.6 °F 87% 29.92 in - SW 9.2 mph - N/A   Clear
6:00 AM 48.2 °F - 44.6 °F 87% 29.92 in 6.2 mi SW 11.5 mph - N/A Rain Light Rain
6:30 AM 48.2 °F - 44.6 °F 87% 29.92 in 6.2 mi SW 9.2 mph - N/A Rain Light Rain
7:00 AM 48.2 °F - 44.6 °F 87% 29.92 in 6.2 mi SSW 8.1 mph - N/A   Partly Cloudy
7:30 AM 48.2 °F - 44.6 °F 87% 29.92 in 6.2 mi SSW 9.2 mph - N/A   Mostly Cloudy
8:00 AM 48.2 °F - 44.6 °F 87% 29.92 in 6.2 mi SSW 11.5 mph - N/A   Mostly Cloudy
8:30 AM 50.0 °F - 44.6 °F 82% 29.92 in 6.2 mi SSW 11.5 mph - N/A   Mostly Cloudy
9:00 AM 50.0 °F - 46.4 °F 87% 29.92 in 6.2 mi SSW 11.5 mph - N/A   Mostly Cloudy
9:30 AM 50.0 °F - 46.4 °F 87% 29.92 in 6.2 mi SSW 10.4 mph - N/A   Overcast
10:00 AM 51.8 °F - 46.4 °F 82% 29.92 in 6.2 mi SW 8.1 mph - N/A   Mostly Cloudy
10:30 AM 51.8 °F - 48.2 °F 88% 29.92 in 6.2 mi SW 10.4 mph - N/A   Mostly Cloudy
11:00 AM 51.8 °F - 46.4 °F 82% 29.92 in 6.2 mi WSW 16.1 mph - N/A   Mostly Cloudy
11:30 AM 53.6 °F - 48.2 °F 82% 29.92 in 6.2 mi SW 17.3 mph - N/A   Mostly Cloudy
11:56 AM 51.8 °F - 48.2 °F 88% 29.92 in 6.2 mi WSW 16.1 mph - N/A Rain Light Rain
12:00 PM 53.6 °F - 48.2 °F 82% 29.92 in 6.2 mi WSW 15.0 mph - N/A Rain Light Rain
12:30 PM 53.6 °F - 50.0 °F 88% 29.92 in 6.2 mi WSW 13.8 mph - N/A Rain Light Rain
1:00 PM 55.4 °F - 50.0 °F 82% 29.95 in 6.2 mi WSW 10.4 mph - N/A   Overcast
1:30 PM 53.6 °F - 48.2 °F 82% 29.95 in 6.2 mi WSW 12.7 mph - N/A Rain Light Rain
2:00 PM 55 °F - 50 °F 78% 29.94 in 25 mi WSW 11.2 mph - - Rain Light Rain
2:00 PM 53.6 °F - 50.0 °F 88% 29.95 in 6.2 mi WSW 11.5 mph - N/A   Mostly Cloudy
2:30 PM 55.4 °F - 51.8 °F 88% 29.95 in 6.2 mi WSW 11.5 mph - N/A   Mostly Cloudy
3:00 PM 57.2 °F - 51.8 °F 82% 29.95 in 6.2 mi West 12.7 mph - N/A   Mostly Cloudy
3:30 PM 57.2 °F - 50.0 °F 77% 29.95 in 6.2 mi West 12.7 mph - N/A Rain Light Rain Showers
4:00 PM 55.4 °F - 50.0 °F 82% 29.95 in 6.2 mi West 11.5 mph - N/A   Mostly Cloudy
4:01 PM 55.4 °F - 50.0 °F 82% 29.95 in 6.2 mi West 10.4 mph - N/A Rain Light Rain Showers
4:30 PM 53.6 °F - 50.0 °F 88% 29.95 in 6.2 mi West 10.4 mph - N/A Rain Light Rain Showers
5:00 PM 53.6 °F - 50.0 °F 88% 29.98 in 6.2 mi West 6.9 mph - N/A   Scattered Clouds
5:11 PM 53.6 °F - 50.0 °F 88% 29.98 in 6.2 mi West 9.2 mph - N/A Rain Light Rain Showers
5:30 PM 53.6 °F - 48.2 °F 82% 29.98 in 6.2 mi WNW 9.2 mph - N/A Rain Light Rain Showers
6:00 PM 53.6 °F - 50.0 °F 88% 29.98 in 6.2 mi West 8.1 mph - N/A   Scattered Clouds
6:30 PM 53.6 °F - 50.0 °F 88% 29.98 in 6.2 mi West 9.2 mph - N/A   Scattered Clouds
7:00 PM 53.6 °F - 50.0 °F 88% 30.01 in 6.2 mi WSW 6.9 mph - N/A   Partly Cloudy
7:30 PM 53.6 °F - 50.0 °F 88% 30.01 in 6.2 mi WSW 6.9 mph - N/A   Scattered Clouds
8:00 PM 52 °F - 49 °F 88% 30.04 in 19 mi SW 4.5 mph - -   Partly Cloudy
8:00 PM 51.8 °F - 50.0 °F 94% 30.04 in 6.2 mi WSW 5.8 mph - N/A   Partly Cloudy
8:31 PM 51.8 °F - 50.0 °F 94% 30.04 in - WSW 10.4 mph - N/A   Clear
9:00 PM 51.8 °F - 50.0 °F 94% 30.04 in - West 9.2 mph - N/A   Clear
9:30 PM 51.8 °F - 50.0 °F 94% 30.04 in - WSW 13.8 mph - N/A   Clear
10:00 PM 51.8 °F - 48.2 °F 88% 30.04 in - WSW 11.5 mph - N/A   Clear
10:30 PM 51.8 °F - 48.2 °F 88% 30.06 in - WSW 11.5 mph - N/A   Clear
11:00 PM 50.0 °F - 48.2 °F 94% 30.06 in - WSW 11.5 mph - N/A   Clear
11:30 PM 50.0 °F - 46.4 °F 87% 30.06 in - WSW 6.9 mph - N/A   Clear